[[{"header":{"parameterUnit":"m.s-1","parameterCategory":1,"la1":30.2991,"la2":30.254,"lo1":-89.0895,"lo2":-89.0444,"dy":0.0017,"dx":0.0017,"nx":28,"ny":28,"refTime":"2025-07-17T03:00:00:Z","depth":0,"parameterNumber":2,"parameterNumberName":"U-component_of_WINDS"},"data":[0,0,0,0,0,0,0,0,0,0,0,0,0,0,0,0,0,0,0,0,0,0,0,0,0,0,0,0,0,0,0,0,0,0,0,0,0,0,0,0,0,0,0,0,0,0,0,0,0,0,0,0,0,0,0,0,0,0,1.3358,1.3359,0,1.3424,1.3425,1.3426,1.3421,1.342,1.3419,1.3418,1.3482,1.3485,1.3487,0,0,0,0,0,0,0,0,0,0,0,0,0,1.3221,1.3223,1.3358,1.3359,1.3359,1.3424,1.3425,1.3426,1.3421,1.342,1.3418,1.3417,1.3481,1.3484,1.3488,0,0,0,0,0,0,0,0,0,0,0,0,0,1.3283,1.3224,1.3358,1.3365,1.3366,1.3424,1.3425,1.3426,1.3421,1.342,1.3418,1.3417,1.348,1.3484,1.3488,1.3542,0,0,1.35,1.3502,0,0,0,0,0,0,0,0,1.328,1.3288,1.3363,1.3364,1.3366,1.3413,1.3401,1.3465,1.3421,1.34,1.3418,1.3416,1.346,1.3466,1.3481,1.3545,1.3548,1.3501,1.3503,1.3505,1.3506,0,0,0,0,0,0,0,1.3275,1.3285,1.3384,1.3364,1.3366,1.3363,1.337,1.3413,1.3437,1.3402,1.3402,1.341,1.3461,1.3477,1.3483,1.3549,1.35,1.3504,1.3506,1.3508,1.3658,1.366,0,0,0,0,0,0,1.327,1.3282,1.3382,1.3386,1.3318,1.3367,1.3375,1.3399,1.3437,1.3441,1.3411,1.3409,1.3471,1.3478,1.3485,1.3549,1.3505,1.3508,1.3511,1.3657,1.3659,1.366,0,0,0,0,0,0,1.3267,1.3279,1.3379,1.3334,1.3346,1.3371,1.3398,1.3401,1.3418,1.3444,1.3448,1.3424,1.3471,1.3479,1.3528,1.3551,1.351,1.3514,1.3655,1.3657,1.366,1.3679,0,0,0,0,0,0,1.3263,1.3278,1.33,1.3334,1.3349,1.3422,1.34,1.3404,1.3425,1.3424,1.3457,1.3461,1.347,1.3522,1.3532,1.3556,1.3517,1.3653,1.3656,1.3659,1.3676,1.3682,1.3686,0,0,0,0,0,1.3258,1.3303,1.3301,1.3313,1.3377,1.3424,1.3432,1.3442,1.3427,1.3449,1.3465,1.346,1.3548,1.3527,1.3538,1.3564,1.3651,1.3655,1.3659,1.3674,1.3681,1.3686,0,0,0,0,0,0,1.3269,1.3307,1.3306,1.3363,1.339,1.3423,1.345,1.3449,1.348,1.3477,1.3488,1.3495,1.3543,1.3559,1.3535,1.3617,1.3597,1.3603,1.3605,1.3612,1.3617,1.3611,1.352,0,0,0,0,0,1.3279,1.3315,1.3345,1.3393,1.3407,1.3426,1.3447,1.3452,1.348,1.3492,1.3511,1.3538,1.3571,1.3592,1.3624,1.3679,1.3685,1.3702,1.3707,1.3711,1.3716,1.3743,1.375,1.3672,1.3672,1.3672,0,0,1.3298,1.3323,1.3345,1.3396,1.3417,1.3452,1.3436,1.3474,1.35,1.3497,1.3544,1.3559,1.3589,1.364,1.3664,1.3654,1.3739,1.3716,1.3719,1.3721,1.3748,1.3755,1.3761,1.3675,1.3674,1.3674,0,0,1.335,1.3374,1.3415,1.3437,1.3471,1.3483,1.3493,1.3526,1.3536,1.3583,1.3581,1.3611,1.3669,1.3689,1.3707,1.3766,1.3762,1.3776,1.3802,1.3829,1.3835,1.3841,1.3859,1.3866,1.3781,1.3781,1.3781,0,1.3369,1.3424,1.3436,1.3475,1.3496,1.3496,1.3536,1.3556,1.3598,1.3612,1.3601,1.3672,1.3692,1.3747,1.3761,1.3777,1.3787,1.3772,1.3834,1.3839,1.3844,1.3862,1.387,1.3783,1.3782,1.3782,1.3782,0,1.3444,1.3482,1.3511,1.3552,1.3577,1.3616,1.3632,1.3655,1.3658,1.3671,1.3718,1.3743,1.3779,1.3792,1.3796,1.3847,1.384,1.3832,1.3811,1.3853,1.387,1.3877,1.3785,1.3784,1.3784,1.3783,0,0,1.3505,1.3552,1.3562,1.358,1.3616,1.3645,1.3683,1.372,1.3738,1.3767,1.3797,1.3846,1.3838,1.3858,1.3864,1.3887,1.393,1.3876,1.3876,1.3883,1.3985,1.399,1.3998,1.3928,1.3929,1.393,1.3982,0,1.356,1.3629,1.364,1.37,1.3734,1.3734,1.3767,1.3792,1.3805,1.3834,1.3848,1.3881,1.3869,1.3881,1.3905,1.392,1.395,1.3916,1.3954,1.3956,1.3945,1.4007,1.4013,1.4061,1.3989,1.399,1.3991,0,1.3633,1.3664,1.3727,1.3758,1.3772,1.3802,1.3835,1.3864,1.3891,1.3899,1.3921,1.3923,1.3961,1.3941,1.3991,1.3968,1.3984,1.3994,1.3996,1.3998,1.3975,1.401,1.4076,1.4083,1.4002,1.4001,1.4,0,1.3668,1.3726,1.3771,1.3786,1.3823,1.3844,1.386,1.3886,1.3906,1.3935,1.3948,1.398,1.3997,1.4021,1.4032,1.4016,1.4081,1.4062,1.4086,1.4086,1.4099,1.4097,1.4167,1.4112,1.4112,1.4112,1.4112,0,1.3727,1.3765,1.3787,1.3814,1.3856,1.3868,1.3909,1.3924,1.3947,1.3976,1.3978,1.4005,1.4018,1.4046,1.4055,1.4094,1.4102,1.4108,1.4109,1.4107,1.4106,1.4116,1.4112,1.4114,1.4114,1.4113,1.4113,0,1.3772,1.3789,1.3838,1.3869,1.3878,1.3907,1.3933,1.3958,1.3971,1.4008,1.4017,1.4036,1.407,1.4083,1.4123,1.4129,1.4173,1.4173,1.4164,1.4164,1.4187,1.4184,1.4264,1.4275,1.4215,1.4216,1.4216,0,1.3808,1.3837,1.3872,1.3892,1.3909,1.3941,1.3962,1.3975,1.3996,1.4029,1.405,1.4083,1.411,1.4163,1.418,1.421,1.4209,1.4235,1.4214,1.421,1.4207,1.4205,1.4206,1.4239,1.4239,1.424,1.424,0,1.3868,1.3875,1.3906,1.3939,1.3964,1.3991,1.4017,1.4033,1.4048,1.4072,1.4106,1.4128,1.4169,1.4201,1.4232,1.4247,1.4245,1.4247,1.4254,1.4251,1.4244,1.4246,1.4173,1.4245,1.4244,1.4244,1.4244,1.4244,1.3908,1.3934,1.3962,1.3996,1.4017,1.404,1.4065,1.4082,1.4111,1.4146,1.4151,1.4188,1.4212,1.4254,1.427,1.4297,1.429,1.4301,1.4303,1.4305,1.4306,1.4241,1.4303,1.4303,1.4303,1.4303,1.4303,0,1.3967,1.3985,1.4016,1.4052,1.4078,1.4076,1.4104,1.4126,1.4158,1.4182,1.4209,1.4247,1.4278,1.4298,1.4328,1.4346,1.4346,1.4354,1.4352,1.4354,1.4311,1.4301,1.4353,1.4353,1.4353,1.4353,1.4353,1.4353,1.4,1.4043,1.4052,1.4104,1.4122,1.4158,1.4174,1.4195,1.4214,1.4257,1.4284,1.4296,1.4318,1.435,1.4378,1.4382,1.4393,1.44,1.4404,1.4363,1.4358,1.4353,1.4343,1.4403,1.4403,1.4445,1.4445,1.4445]},{"header":{"parameterUnit":"m.s-1","parameterCategory":1,"la1":30.2991,"la2":30.254,"lo1":-89.0895,"lo2":-89.0444,"dy":0.0017,"dx":0.0017,"nx":28,"ny":28,"refTime":"2025-07-17T03:00:00:Z","depth":0,"parameterNumber":3,"parameterNumberName":"V-component_of_WINDS"},"data":[0,0,0,0,0,0,0,0,0,0,0,0,0,0,0,0,0,0,0,0,0,0,0,0,0,0,0,0,0,0,0,0,0,0,0,0,0,0,0,0,0,0,0,0,0,0,0,0,0,0,0,0,0,0,0,0,0,0,6.6136,6.6138,0,6.6278,6.628,6.6281,6.6224,6.622,6.6217,6.6214,6.6353,6.6359,6.6366,0,0,0,0,0,0,0,0,0,0,0,0,0,6.5807,6.5814,6.6136,6.6138,6.614,6.6278,6.628,6.6282,6.6224,6.622,6.6216,6.6212,6.6351,6.6359,6.6367,0,0,0,0,0,0,0,0,0,0,0,0,0,6.595,6.5816,6.6136,6.6128,6.6129,6.6277,6.628,6.6282,6.6225,6.622,6.6215,6.6211,6.6348,6.6358,6.6368,6.6531,0,0,6.6399,6.6403,0,0,0,0,0,0,0,0,6.5942,6.5962,6.6127,6.6129,6.613,6.6228,6.6215,6.6365,6.6227,6.6188,6.6214,6.6208,6.6315,6.6328,6.6365,6.6537,6.6543,6.64,6.6406,6.6411,6.6413,0,0,0,0,0,0,0,6.5932,6.5955,6.6192,6.613,6.6131,6.6114,6.6129,6.6243,6.6278,6.6191,6.6188,6.6205,6.6315,6.6355,6.6368,6.6545,6.64,6.6409,6.6415,6.6419,6.6854,6.6859,0,0,0,0,0,0,6.5923,6.5947,6.6188,6.6196,6.6022,6.6125,6.6141,6.6202,6.6276,6.6283,6.621,6.6202,6.634,6.6356,6.6372,6.6565,6.641,6.642,6.6426,6.6848,6.6855,6.6861,0,0,0,0,0,0,6.5916,6.5945,6.6182,6.6071,6.61,6.6136,6.6204,6.6207,6.6248,6.629,6.6295,6.6245,6.6337,6.6358,6.6491,6.6569,6.6425,6.6434,6.6842,6.685,6.6858,6.6954,0,0,0,0,0,0,6.5907,6.5943,6.6007,6.6073,6.6106,6.6301,6.6209,6.6213,6.6266,6.6258,6.6325,6.6331,6.6335,6.6476,6.6501,6.6581,6.6442,6.6835,6.6846,6.6855,6.6944,6.6964,6.6982,0,0,0,0,0,6.5895,6.6028,6.6011,6.604,6.6188,6.6306,6.6325,6.6328,6.6273,6.6336,6.6363,6.6329,6.6557,6.6491,6.6518,6.6602,6.683,6.6843,6.6855,6.6935,6.696,6.6982,0,0,0,0,0,0,6.5969,6.6037,6.6018,6.6177,6.6236,6.6296,6.6377,6.6355,6.6429,6.6418,6.6416,6.6432,6.6569,6.6599,6.6524,6.6761,6.6685,6.6703,6.6737,6.6761,6.678,6.6769,6.645,0,0,0,0,0,6.6004,6.6097,6.615,6.6285,6.6316,6.6341,6.6393,6.639,6.645,6.6475,6.6511,6.6569,6.6653,6.6709,6.6789,6.6948,6.696,6.7019,6.7038,6.7053,6.7068,6.7151,6.7177,6.6901,6.6901,6.6901,0,0,6.6077,6.6125,6.6184,6.6301,6.6346,6.6439,6.6363,6.6465,6.6533,6.6489,6.6617,6.6646,6.671,6.6857,6.6923,6.6885,6.7147,6.7069,6.7081,6.7088,6.7166,6.7192,6.7215,6.6909,6.6908,6.6906,0,0,6.6257,6.6304,6.642,6.6467,6.6538,6.6554,6.6581,6.6644,6.6662,6.6791,6.6759,6.6838,6.6985,6.7031,6.7074,6.7268,6.7238,6.7294,6.7392,6.7473,6.7495,6.7514,6.758,6.7604,6.7309,6.731,6.731,0,6.6338,6.6479,6.6482,6.6587,6.6637,6.6603,6.6718,6.6763,6.6856,6.689,6.6848,6.7028,6.707,6.7224,6.7271,6.7308,6.7337,6.7286,6.7492,6.7511,6.7529,6.7592,6.7617,6.7316,6.7315,6.7314,6.7314,0,6.6574,6.6672,6.6756,6.6848,6.6908,6.7017,6.7033,6.7093,6.7085,6.7104,6.7233,6.7281,6.7369,6.7405,6.7398,6.7558,6.7532,6.7491,6.7414,6.7561,6.762,6.7645,6.7324,6.7322,6.732,6.7319,0,0,6.6805,6.6895,6.6926,6.6965,6.7039,6.7113,6.7219,6.7307,6.7357,6.7421,6.7507,6.7631,6.7592,6.7641,6.7637,6.7708,6.7855,6.7658,6.7659,6.769,6.8031,6.806,6.8088,6.7836,6.7841,6.7845,6.8024,0,6.6988,6.7177,6.7181,6.7352,6.7441,6.7409,6.75,6.7554,6.7574,6.7649,6.767,6.7757,6.7701,6.773,6.7799,6.7823,6.7923,6.781,6.7914,6.7917,6.7897,6.812,6.8152,6.8319,6.8048,6.8052,6.8055,0,6.7228,6.7301,6.7481,6.754,6.7577,6.766,6.7738,6.7812,6.787,6.788,6.7933,6.7918,6.8022,6.7943,6.8085,6.8008,6.805,6.8068,6.8075,6.8083,6.7994,6.8131,6.8373,6.8397,6.8092,6.8089,6.8086,0,6.7375,6.7518,6.7643,6.7678,6.7751,6.7809,6.7841,6.7895,6.7946,6.8014,6.8046,6.8125,6.8167,6.8227,6.8232,6.8175,6.8374,6.8296,6.8382,6.8382,6.8424,6.8421,6.8673,6.8455,6.8455,6.8454,6.8454,0,6.7579,6.769,6.771,6.7787,6.7909,6.7911,6.8031,6.8058,6.8106,6.8185,6.8161,6.8236,6.824,6.8315,6.832,6.8434,6.8454,6.8462,6.8462,6.8463,6.8462,6.849,6.8477,6.8461,6.846,6.8458,6.8457,0,6.7763,6.7782,6.7916,6.7973,6.799,6.8077,6.8124,6.8196,6.8213,6.8313,6.8336,6.8363,6.845,6.8462,6.8563,6.8566,6.8703,6.8692,6.8684,6.8682,6.8766,6.8757,6.9043,6.9079,6.884,6.8842,6.8844,0,6.7891,6.7976,6.8042,6.8094,6.8129,6.8214,6.8266,6.827,6.8324,6.8395,6.8458,6.8543,6.8611,6.8751,6.8777,6.8854,6.8842,6.8937,6.8853,6.8851,6.884,6.8835,6.8841,6.8953,6.8955,6.8957,6.8959,0,6.8115,6.812,6.8197,6.8276,6.8339,6.8402,6.846,6.8504,6.8514,6.8576,6.8666,6.8719,6.8822,6.8905,6.8981,6.901,6.8986,6.8985,6.9009,6.9011,6.9002,6.9005,6.8726,6.8979,6.8977,6.8975,6.8974,6.8973,6.8274,6.8346,6.8403,6.8489,6.8533,6.8588,6.8657,6.8683,6.8758,6.8844,6.8841,6.8938,6.899,6.9089,6.9124,6.9198,6.9167,6.9202,6.921,6.9218,6.9225,6.8991,6.9212,6.9212,6.9211,6.9211,6.921,0,6.8494,6.8529,6.8608,6.869,6.8757,6.873,6.8792,6.8849,6.8935,6.8987,6.9055,6.9155,6.9235,6.9268,6.9345,6.9398,6.9388,6.9418,6.9413,6.9419,6.925,6.9221,6.9424,6.9424,6.9424,6.9424,6.9424,6.9424,6.8617,6.8737,6.8748,6.8888,6.8921,6.9018,6.9055,6.9104,6.9145,6.9259,6.9326,6.9347,6.939,6.947,6.9541,6.9548,6.9576,6.9611,6.9613,6.9453,6.9432,6.9411,6.9384,6.9617,6.9618,6.9775,6.9777,6.9778]}]]